Trieste, Italy

5:28 PM CEST on August 30, 2016 (GMT +0200)
Trieste

Weather History for LIVT - October, 2012

Change the Weather History Date:

Monday, October 8, 2012

  Actual Average Record
Temperature  
Mean Temperature 61 °F -  
Max Temperature 66 °F 62 °F 75 °F (2001)
Min Temperature 56 °F 53 °F 46 °F (2011)
Degree Days  
Heating Degree Days 4    
Growing Degree Days 11 (Base 50)    
Moisture  
Dew Point 40 °F    
Average Humidity 44    
Maximum Humidity 59    
Minimum Humidity 24    
Precipitation  
Precipitation 0.00 in 0.12 in - ()
Sea Level Pressure  
Sea Level Pressure 30.02 in    
Wind  
Wind Speed 14 mph ()    
Max Wind Speed 25 mph    
Max Gust Speed 50 mph    
Visibility 10.1 miles    
Events      
Averages and records for this station are not official NWS values.
T = Trace of Precipitation, MM = Missing Value Source: Averaged Metar Reports

Daily Weather History Graph

Daily Weather History Graph

Search for Another Location

Airport or City:

Trip Planner

Search our weather history database for the weather conditions in past years. The results will help you decide how hot, cold, wet, or windy it might be!

Date:

Astronomy

Oct. 08, 2012 Rise Set
Actual Time 7:12 AM CEST 6:31 PM CEST
Civil Twilight 6:42 AM CEST 7:01 PM CEST
Nautical Twilight 6:08 AM CEST 7:35 PM CEST
Astronomical Twilight 5:33 AM CEST 8:10 PM CEST
Moon No Moon Rise 2:28 PM CEST (10/8)
Length of Visible Light 12h 18m
Length of Day
11h 19m
Waning Gibbous, 49% of the Moon is Illuminated
Oct 8
Waning Gibbous
Oct 15
New
Oct 22
First Quarter
Oct 29
Full
Nov 7
Last Quarter

Hourly Weather History & Observations

Time (CEST) Temp. Dew Point Humidity Pressure Visibility Wind Dir Wind Speed Gust Speed Precip Events Conditions
12:55 AM 64.4 °F 50.0 °F 59% 29.95 in - NE 12.7 mph 27.6 mph N/A   Clear
1:55 AM 62.6 °F 48.2 °F 59% 29.98 in - ENE 17.3 mph 32.2 mph N/A   Clear
2:00 AM 63 °F 48 °F 47% 29.99 in 12 mi ENE 17.3 mph - -   Partly Cloudy
3:55 AM 60.8 °F 46.4 °F 59% 30.01 in - ENE 23.0 mph 46.0 mph N/A   Clear
4:55 AM 59.0 °F 44.6 °F 59% 30.01 in - NE 21.9 mph 49.5 mph N/A   Clear
5:55 AM 59.0 °F 42.8 °F 55% 30.01 in - ENE 25.3 mph 49.5 mph N/A   Clear
6:55 AM 57.2 °F 41.0 °F 55% 30.01 in - ENE 24.2 mph 47.2 mph N/A   Clear
7:55 AM 57.2 °F 41.0 °F 55% 30.04 in - ENE 24.2 mph 44.9 mph N/A   Clear
8:00 AM 57 °F 40 °F 42% 30.05 in 12 mi ENE 24.2 mph - -   Partly Cloudy
8:55 AM 59.0 °F 39.2 °F 48% 30.06 in - ENE 21.9 mph 44.9 mph N/A   Clear
9:55 AM 60.8 °F 37.4 °F 42% 30.04 in - ENE 23.0 mph 43.7 mph N/A   Clear
10:55 AM 60.8 °F 39.2 °F 45% 30.06 in - ENE 23.0 mph 46.0 mph N/A   Clear
11:55 AM 62.6 °F 35.6 °F 37% 30.06 in - ENE 18.4 mph 41.4 mph N/A   Clear
12:55 PM 64.4 °F 37.4 °F 37% 30.06 in - NE 11.5 mph 26.5 mph N/A   Clear
1:55 PM 66.2 °F 37.4 °F 35% 30.06 in - NE 10.4 mph - N/A   Clear
2:00 PM 66 °F 38 °F 24% 30.07 in 12 mi NE 10.4 mph - -   Scattered Clouds
2:55 PM 66.2 °F 35.6 °F 32% 30.04 in - ENE 8.1 mph - N/A   Clear
3:55 PM 66.2 °F 37.4 °F 35% 30.04 in - ENE 5.8 mph - N/A   Clear
4:55 PM 66.2 °F 35.6 °F 32% 30.01 in - NE 6.9 mph - N/A   Clear
5:55 PM 64.4 °F 37.4 °F 37% 30.01 in - ENE 9.2 mph - N/A   Clear
6:55 PM 60.8 °F 37.4 °F 42% 30.01 in - ENE 10.4 mph - N/A   Clear
7:55 PM 60.8 °F 37.4 °F 42% 30.01 in - ENE 9.2 mph 20.7 mph N/A   Clear
8:00 PM 61 °F 38 °F 31% 30.02 in 12 mi ENE 9.2 mph - -   Partly Cloudy
8:55 PM 59.0 °F 39.2 °F 48% 30.01 in - ENE 12.7 mph - N/A   Clear
9:55 PM 60.8 °F 37.4 °F 42% 30.01 in - ENE 9.2 mph - N/A   Clear
10:55 PM 59.0 °F 37.4 °F 45% 30.01 in 6.2 mi East 9.2 mph - N/A   Partly Cloudy
11:55 PM 59.0 °F 37.4 °F 45% 29.98 in 6.2 mi East 5.8 mph - N/A   Partly Cloudy